Hourly Data Report for December 13, 2019

All times are specified in Local Standard Time (LST). Add 1 hour to adjust for Daylight Saving Time where and when it is observed.

TORONTO INTL A
ONTARIO
Current Station Operator: NAVCAN

43°40'36.000" N
79°37'50.000" W
173.40 m
6158731
71624
YYZ

Download Data

Hourly Data (December 2019)
Hourly Data Report for December 13, 2019
TIME Temp Definition
°C
Dew Point Definition
°C
Rel Hum Definition
%
Wind Dir Definition
10's deg

Wind Spd Definition
km/h
Visibility Definition
km
Stn Press Definition
kPa
Hmdx Definition


Wind Chill Definition


Weather Definition


00:00 -0.5 -5.0 71 16 24 24.1 100.24   -6 LegendNANA
01:00 -0.5 -4.9 72 15 18 24.1 100.17   -6 Mainly Clear
02:00 -0.3 -4.6 73 16 16 24.1 100.15   -5 LegendNANA
03:00 -0.6 -5.2 72 16 16 24.1 100.14   -5 LegendNANA
04:00 -0.7 -5.1 72 16 17 24.1 100.09   -6 Mainly Clear
05:00 -0.2 -5.0 70 17 21 24.1 100.03   -6 LegendNANA
06:00 -0.4 -4.8 72 16 19 24.1 100.01   -6 LegendNANA
07:00 0.3 -4.3 71 16 20 24.1 99.99     Mostly Cloudy
08:00 0.3 -4.2 72 16 18 24.1 99.99     LegendNANA
09:00 1.6 -3.4 69 15 16 24.1 99.99     LegendNANA
10:00 3.3 -2.9 64 16 22 24.1 100.00     Mostly Cloudy
11:00 5.1 -2.8 57 16 23 24.1 99.91     LegendNANA
12:00 4.9 -2.4 59 15 18 24.1 99.81     LegendNANA
13:00 5.4 -2.7 56 15 24 24.1 99.74     Mostly Cloudy
14:00 4.8 -2.7 58 15 20 24.1 99.65     LegendNANA
15:00 5.1 -2.9 56 16 23 24.1 99.59     LegendNANA
16:00 4.2 -3.6 57 15 17 24.1 99.54     Mostly Cloudy
17:00 3.8 -2.3 64 13 13 24.1 99.52     LegendNANA
18:00 3.3 -2.7 65 11 8 24.1 99.45     LegendNANA
19:00 2.7 -3.0 66 8 18 24.1 99.38     Mostly Cloudy
20:00 3.1 -1.6 71 10 8 24.1 99.35     LegendNANA
21:00 2.6 -1.6 74 8 18 24.1 99.28     LegendNANA
22:00 3.1 -1.3 73 11 9 24.1 99.23     Mostly Cloudy
23:00 3.3 -0.9 74 10 8 24.1 99.14     LegendNANA

Notes on Data Quality.

Legend

  • E = Estimated
  • M = Missing
  • NA = Not Available
Date modified: